Overview Statistics Trail Chart Weather Telemetry Raw packets
 

This is the latest recevied weather packets stored in our database for station/object SQ4IXR-4. If no packets are shown the sender has not sent any weather packets the latest 10 day(s).

<< 4 5 6 7 8 9 10 >>
Time Temp. Humidity Pressure Rain* Wind** Luminosity Snow
1788533758 23.33° C 63% 1009.7 hPa - - - -
1788532936 23.89° C 65% 1010 hPa - - - -
1788532110 22.78° C 71% 1010.4 hPa - - - -
1788531287 22.78° C 71% 1010.5 hPa - - - -
1788530463 22.78° C 69% 1010.7 hPa - - - -
1788529639 22.78° C 70% 1010.7 hPa - - - -
1788528816 22.78° C 77% 1011.1 hPa - - - -
1788527993 23.89° C 79% 1011.1 hPa - - - -
1788527163 22.78° C 10% - - - - -
1788526362 20° C 10% - - - - -
1788525514 18.89° C 10% - - - - -
1788524700 24.44° C 57% 1011.4 hPa - - - -
1788523874 25° C 62% 1011.5 hPa - - - -
1788523044 22.78° C 70% 1011.9 hPa - - - -
1788522220 21.11° C 77% 1012.3 hPa - - - -
1788521396 23.33° C 71% 1012.4 hPa - - - -
1788520571 22.22° C 70% 1012.4 hPa - - - -
1788519754 23.89° C 58% 1012.5 hPa - - - -
1788518933 26.67° C 50% 1012.4 hPa - - - -
1788518104 25.56° C 53% 1012.4 hPa - - - -
1788517281 24.44° C 56% 1012.4 hPa - - - -
1788516456 24.44° C 57% 1012.8 hPa - - - -
1788515632 24.44° C 57% 1013 hPa - - - -
1788514839 24.44° C 57% 1012.9 hPa - - - -
1788513990 27.78° C 49% 1012.7 hPa - - - -

* Rain since midnight (hover to see other rain measurements)
** Current wind speed in m/s (hover to see current wind gust speed)